Time,TemperatureF,DewpointF,PressureIn,WindDirection,WindDirectionDegrees,WindSpeedMPH,WindSpeedGustMPH,Humidity,HourlyPrecipIn,Conditions,Clouds,dailyrainin,SoftwareType,DateUTC
2013-08-25 00:12:00,79.0,-99.9,-100.00,South,174,3.0,-999.0,-999,0.00,,,0.00,,2013-08-25 05:12:00,
2013-08-25 00:43:00,79.0,-99.9,-100.00,SSE,152,4.0,-999.0,-999,0.00,,,0.00,,2013-08-25 05:43:00,
2013-08-25 00:52:00,79.0,-99.9,-100.00,SSE,152,4.0,-999.0,-999,0.00,,,0.00,,2013-08-25 05:52:00,
2013-08-25 01:12:00,78.0,-99.9,-100.00,SE,129,5.0,-999.0,-999,0.00,,,0.00,,2013-08-25 06:12:00,
2013-08-25 01:22:00,78.0,-99.9,-100.00,SE,129,5.0,-999.0,-999,0.00,,,0.00,,2013-08-25 06:22:00,
2013-08-25 01:43:00,78.0,-99.9,-100.00,SE,130,5.0,-999.0,-999,0.00,,,0.00,,2013-08-25 06:43:00,
2013-08-25 01:52:00,78.0,-99.9,-100.00,SE,130,5.0,-999.0,-999,0.00,,,0.00,,2013-08-25 06:52:00,
2013-08-25 02:12:00,77.0,-99.9,-100.00,ESE,115,2.0,-999.0,-999,0.00,,,0.00,,2013-08-25 07:12:00,
2013-08-25 02:22:00,77.0,-99.9,-100.00,ESE,115,2.0,-999.0,-999,0.00,,,0.00,,2013-08-25 07:22:00,
2013-08-25 02:42:00,76.0,-99.9,-100.00,SE,132,2.0,-999.0,-999,0.00,,,0.00,,2013-08-25 07:42:00,
2013-08-25 02:53:00,76.0,-99.9,-100.00,SE,132,2.0,-999.0,-999,0.00,,,0.00,,2013-08-25 07:53:00,
2013-08-25 03:12:00,76.0,-99.9,-100.00,SE,125,3.0,-999.0,-999,0.00,,,0.00,,2013-08-25 08:12:00,
2013-08-25 03:22:00,76.0,-99.9,-100.00,SE,125,3.0,-999.0,-999,0.00,,,0.00,,2013-08-25 08:22:00,
2013-08-25 03:42:00,76.0,-99.9,-100.00,ESE,122,4.0,-999.0,-999,0.00,,,0.00,,2013-08-25 08:42:00,
2013-08-25 03:53:00,76.0,-99.9,-100.00,ESE,122,4.0,-999.0,-999,0.00,,,0.00,,2013-08-25 08:53:00,
2013-08-25 04:11:00,76.0,-99.9,-100.00,ESE,118,5.0,-999.0,-999,0.00,,,0.00,,2013-08-25 09:11:00,
2013-08-25 04:22:00,76.0,-99.9,-100.00,ESE,118,5.0,-999.0,-999,0.00,,,0.00,,2013-08-25 09:22:00,
2013-08-25 04:44:00,76.0,-99.9,-100.00,ESE,108,2.0,-999.0,-999,0.00,,,0.00,,2013-08-25 09:44:00,
2013-08-25 04:55:00,76.0,-99.9,-100.00,ESE,108,2.0,-999.0,-999,0.00,,,0.00,,2013-08-25 09:55:00,
2013-08-25 05:12:00,75.0,-99.9,-100.00,East,94,3.0,-999.0,-999,0.00,,,0.00,,2013-08-25 10:12:00,
2013-08-25 05:23:00,75.0,-99.9,-100.00,East,94,3.0,-999.0,-999,0.00,,,0.00,,2013-08-25 10:23:00,
2013-08-25 05:42:00,74.0,-99.9,-100.00,SE,127,2.0,-999.0,-999,0.00,,,0.00,,2013-08-25 10:42:00,
2013-08-25 05:53:00,74.0,-99.9,-100.00,SE,127,2.0,-999.0,-999,0.00,,,0.00,,2013-08-25 10:53:00,
2013-08-25 06:12:00,74.0,-99.9,-100.00,SE,133,3.0,-999.0,-999,0.00,,,0.00,,2013-08-25 11:12:00,
2013-08-25 06:22:00,74.0,-99.9,-100.00,SE,133,3.0,-999.0,-999,0.00,,,0.00,,2013-08-25 11:22:00,
2013-08-25 06:42:00,74.0,-99.9,-100.00,ESE,111,3.0,-999.0,-999,0.00,,,0.00,,2013-08-25 11:42:00,
2013-08-25 06:52:00,74.0,-99.9,-100.00,ESE,111,3.0,-999.0,-999,0.00,,,0.00,,2013-08-25 11:52:00,
2013-08-25 07:12:00,73.0,-99.9,-100.00,SE,126,4.0,-999.0,-999,0.00,,,0.00,,2013-08-25 12:12:00,
2013-08-25 07:22:00,73.0,-99.9,-100.00,SE,126,4.0,-999.0,-999,0.00,,,0.00,,2013-08-25 12:22:00,
2013-08-25 07:43:00,73.0,-99.9,-100.00,SE,130,4.0,-999.0,-999,0.00,,,0.00,,2013-08-25 12:43:00,
2013-08-25 07:52:00,73.0,-99.9,-100.00,SE,130,4.0,-999.0,-999,0.00,,,0.00,,2013-08-25 12:52:00,
2013-08-25 08:12:00,74.0,-99.9,-100.00,ESE,107,2.0,-999.0,-999,0.00,,,0.00,,2013-08-25 13:12:00,
2013-08-25 08:22:00,74.0,-99.9,-100.00,ESE,107,2.0,-999.0,-999,0.00,,,0.00,,2013-08-25 13:22:00,
2013-08-25 08:42:00,76.0,-99.9,-100.00,ESE,117,3.0,-999.0,-999,0.00,,,0.00,,2013-08-25 13:42:00,
2013-08-25 08:52:00,76.0,-99.9,-100.00,ESE,117,3.0,-999.0,-999,0.00,,,0.00,,2013-08-25 13:52:00,
2013-08-25 09:11:00,78.0,-99.9,-100.00,ESE,122,2.0,-999.0,-999,0.00,,,0.00,,2013-08-25 14:11:00,
2013-08-25 09:28:00,78.0,-99.9,-100.00,ESE,122,2.0,-999.0,-999,0.00,,,0.00,,2013-08-25 14:28:00,
2013-08-25 09:42:00,79.0,-99.9,-100.00,ESE,117,2.0,-999.0,-999,0.00,,,0.00,,2013-08-25 14:42:00,
2013-08-25 09:52:00,79.0,-99.9,-100.00,ESE,117,2.0,-999.0,-999,0.00,,,0.00,,2013-08-25 14:52:00,
2013-08-25 10:11:00,81.0,-99.9,-100.00,South,185,1.0,-999.0,-999,0.00,,,-99.99,,2013-08-25 15:11:00,
2013-08-25 10:23:00,81.0,-99.9,-100.00,South,185,1.0,-999.0,-999,0.00,,,-99.99,,2013-08-25 15:23:00,
2013-08-25 10:44:00,82.0,-99.9,-100.00,South,189,4.0,-999.0,-999,0.00,,,0.00,,2013-08-25 15:44:00,
2013-08-25 10:55:00,82.0,-99.9,-100.00,South,189,4.0,-999.0,-999,0.00,,,0.00,,2013-08-25 15:55:00,
2013-08-25 11:14:00,84.0,-99.9,-100.00,SE,128,1.0,-999.0,-999,0.00,,,0.00,,2013-08-25 16:14:00,
2013-08-25 11:24:00,84.0,-99.9,-100.00,SE,128,1.0,-999.0,-999,0.00,,,0.00,,2013-08-25 16:24:00,
2013-08-25 11:44:00,85.0,-99.9,-100.00,South,181,2.0,-999.0,-999,0.00,,,0.00,,2013-08-25 16:44:00,
2013-08-25 11:54:00,85.0,-99.9,-100.00,South,181,2.0,-999.0,-999,0.00,,,0.00,,2013-08-25 16:54:00,
2013-08-25 12:12:00,85.0,-99.9,-100.00,South,171,4.0,-999.0,-999,0.00,,,0.00,,2013-08-25 17:12:00,
2013-08-25 12:23:00,85.0,-99.9,-100.00,South,171,4.0,-999.0,-999,0.00,,,0.00,,2013-08-25 17:23:00,
2013-08-25 12:43:00,87.0,-99.9,-100.00,SSE,148,4.0,-999.0,-999,0.00,,,0.00,,2013-08-25 17:43:00,
2013-08-25 12:53:00,87.0,-99.9,-100.00,SSE,148,4.0,-999.0,-999,0.00,,,0.00,,2013-08-25 17:53:00,
2013-08-25 13:12:00,89.0,-99.9,-100.00,SW,217,2.0,-999.0,-999,0.00,,,0.00,,2013-08-25 18:12:00,
2013-08-25 13:22:00,89.0,-99.9,-100.00,SW,217,2.0,-999.0,-999,0.00,,,0.00,,2013-08-25 18:22:00,
2013-08-25 13:43:00,88.0,-99.9,-100.00,SSE,168,3.0,-999.0,-999,0.00,,,0.00,,2013-08-25 18:43:00,
2013-08-25 13:52:00,88.0,-99.9,-100.00,SSE,168,3.0,-999.0,-999,0.00,,,0.00,,2013-08-25 18:52:00,
2013-08-25 14:12:00,91.0,-99.9,-100.00,ENE,70,2.0,-999.0,-999,0.00,,,0.00,,2013-08-25 19:12:00,
2013-08-25 14:22:00,91.0,-99.9,-100.00,ENE,70,2.0,-999.0,-999,0.00,,,0.00,,2013-08-25 19:22:00,
2013-08-25 14:42:00,91.0,-99.9,-100.00,East,81,3.0,-999.0,-999,0.00,,,0.00,,2013-08-25 19:42:00,
2013-08-25 14:53:00,91.0,-99.9,-100.00,East,81,3.0,-999.0,-999,0.00,,,0.00,,2013-08-25 19:53:00,
2013-08-25 15:13:00,90.0,-99.9,-100.00,SE,124,4.0,-999.0,-999,0.00,,,0.00,,2013-08-25 20:13:00,
2013-08-25 15:24:00,90.0,-99.9,-100.00,SE,124,4.0,-999.0,-999,0.00,,,0.00,,2013-08-25 20:24:00,
2013-08-25 15:43:00,89.0,-99.9,-100.00,SE,134,8.0,-999.0,-999,0.00,,,0.00,,2013-08-25 20:43:00,
2013-08-25 15:53:00,89.0,-99.9,-100.00,SE,134,8.0,-999.0,-999,0.00,,,0.00,,2013-08-25 20:53:00,
2013-08-25 16:12:00,90.0,-99.9,-100.00,SE,136,6.0,-999.0,-999,0.00,,,0.00,,2013-08-25 21:12:00,
2013-08-25 16:22:00,90.0,-99.9,-100.00,SE,136,6.0,-999.0,-999,0.00,,,0.00,,2013-08-25 21:22:00,
2013-08-25 16:43:00,90.0,-99.9,-100.00,SE,125,4.0,-999.0,-999,0.00,,,0.00,,2013-08-25 21:43:00,
2013-08-25 16:55:00,90.0,-99.9,-100.00,SE,125,4.0,-999.0,-999,0.00,,,0.00,,2013-08-25 21:55:00,
2013-08-25 17:14:00,92.0,-99.9,-100.00,ESE,113,2.0,-999.0,-999,0.00,,,0.00,,2013-08-25 22:14:00,
2013-08-25 17:24:00,92.0,-99.9,-100.00,ESE,113,2.0,-999.0,-999,0.00,,,0.00,,2013-08-25 22:24:00,
2013-08-25 17:43:00,90.0,-99.9,-100.00,SE,129,6.0,-999.0,-999,0.00,,,0.00,,2013-08-25 22:43:00,
2013-08-25 17:54:00,90.0,-99.9,-100.00,SE,129,6.0,-999.0,-999,0.00,,,0.00,,2013-08-25 22:54:00,
2013-08-25 18:12:00,88.0,-99.9,-100.00,SE,134,7.0,-999.0,-999,0.00,,,0.00,,2013-08-25 23:12:00,
2013-08-25 18:23:00,88.0,-99.9,-100.00,SE,134,7.0,-999.0,-999,0.00,,,0.00,,2013-08-25 23:23:00,
2013-08-25 18:43:00,88.0,-99.9,-100.00,SE,136,7.0,-999.0,-999,0.00,,,0.00,,2013-08-25 23:43:00,
2013-08-25 18:53:00,88.0,-99.9,-100.00,SE,136,7.0,-999.0,-999,0.00,,,0.00,,2013-08-25 23:53:00,
2013-08-25 19:11:00,87.0,-99.9,-100.00,SE,138,6.0,-999.0,-999,0.00,,,0.00,,2013-08-26 00:11:00,
2013-08-25 19:22:00,87.0,-99.9,-100.00,SE,138,6.0,-999.0,-999,0.00,,,0.00,,2013-08-26 00:22:00,
2013-08-25 19:42:00,86.0,-99.9,-100.00,SSE,153,4.0,-999.0,-999,0.00,,,0.00,,2013-08-26 00:42:00,
2013-08-25 19:52:00,86.0,-99.9,-100.00,SSE,153,4.0,-999.0,-999,0.00,,,0.00,,2013-08-26 00:52:00,
2013-08-25 20:11:00,84.0,-99.9,-100.00,SSE,166,4.0,-999.0,-999,0.00,,,0.00,,2013-08-26 01:11:00,
2013-08-25 20:22:00,84.0,-99.9,-100.00,SSE,166,4.0,-999.0,-999,0.00,,,0.00,,2013-08-26 01:22:00,
2013-08-25 20:42:00,83.0,-99.9,-100.00,SSE,167,2.0,-999.0,-999,0.00,,,0.00,,2013-08-26 01:42:00,
2013-08-25 20:52:00,83.0,-99.9,-100.00,SSE,167,2.0,-999.0,-999,0.00,,,0.00,,2013-08-26 01:52:00,
2013-08-25 21:11:00,82.0,-99.9,-100.00,South,177,4.0,-999.0,-999,0.00,,,0.00,,2013-08-26 02:11:00,
2013-08-25 21:22:00,82.0,-99.9,-100.00,South,177,4.0,-999.0,-999,0.00,,,0.00,,2013-08-26 02:22:00,
2013-08-25 21:42:00,81.0,-99.9,-100.00,South,183,3.0,-999.0,-999,0.00,,,0.00,,2013-08-26 02:42:00,
2013-08-25 21:52:00,81.0,-99.9,-100.00,South,183,3.0,-999.0,-999,0.00,,,0.00,,2013-08-26 02:52:00,
2013-08-25 22:11:00,80.0,-99.9,-100.00,South,187,2.0,-999.0,-999,0.00,,,0.00,,2013-08-26 03:11:00,
2013-08-25 22:22:00,80.0,-99.9,-100.00,South,187,2.0,-999.0,-999,0.00,,,0.00,,2013-08-26 03:22:00,
2013-08-25 22:44:00,79.0,-99.9,-100.00,SSW,196,1.0,-999.0,-999,0.00,,,0.00,,2013-08-26 03:44:00,
2013-08-25 22:56:00,79.0,-99.9,-100.00,SSW,196,1.0,-999.0,-999,0.00,,,0.00,,2013-08-26 03:56:00,
2013-08-25 23:14:00,78.0,-99.9,-100.00,SSW,200,1.0,-999.0,-999,0.00,,,0.00,,2013-08-26 04:14:00,
2013-08-25 23:24:00,78.0,-99.9,-100.00,SSW,200,1.0,-999.0,-999,0.00,,,0.00,,2013-08-26 04:24:00,
2013-08-25 23:44:00,76.0,-99.9,-100.00,SW,229,1.0,-999.0,-999,0.00,,,0.00,,2013-08-26 04:44:00,
2013-08-25 23:53:00,76.0,-99.9,-100.00,SW,229,1.0,-999.0,-999,0.00,,,0.00,,2013-08-26 04:53:00,